Theta_e
316 317 316 319 321 321 321 322 322 321 320 320 320 321 321 321 321 321 322 322 322 322 322 323 323 323 324 322 323 322 319 316 320 317 314 312 315 314 314 313 314 314 314 316 317 317 317
321 318 317 318 320 321 322 322 321 321 321 320 321 320 322 323 323 324 323 322 322 324 324 323 323 323 322 318 322 321 318 321 322 317 313 310 313 313 314 313 314 314 314 315 316 316 316
325 320 319 320 320 321 322 321 321 322 324 324 322 322 323 323 324 324 324 323 322 323 323 323 322 323 321 322 323 324 324 323 322 315 313 311 311 313 313 313 314 314 313 312 314 316 315
321 322 321 322 322 320 321 322 324 324 323 323 325 324 320 320 324 325 324 324 322 322 322 323 322 322 320 323 323 323 319 318 320 316 313 312 311 312 313 314 313 313 313 314 314 314 316
318 316 317 317 320 321 320 320 321 321 322 322 323 323 321 322 324 324 324 323 322 322 322 321 320 319 318 321 320 317 316 312 312 314 314 311 312 312 313 312 311 310 312 313 314 313 313
316 314 315 315 313 314 317 317 318 317 318 319 319 320 321 321 319 316 314 312 312 312 312 311 308 313 318 321 321 315 312 311 311 311 311 311 311 309 308 310 312 311 311 311 312 312 311
310 310 314 314 307 311 311 313 313 315 315 317 317 316 315 314 313 314 314 314 315 313 310 316 315 317 316 312 314 314 311 310 310 311 309 310 309 310 310 310 311 311 310 311 311 311 312
309 309 308 308 311 310 308 310 310 310 311 311 312 313 314 316 315 314 314 314 313 312 312 315 315 313 316 317 312 314 311 311 309 308 309 309 310 309 310 310 311 311 311 311 310 310 312
307 308 310 311 308 308 308 308 310 310 311 310 310 310 311 312 313 313 312 311 311 311 310 312 315 315 314 315 312 313 313 310 308 307 309 309 310 310 310 310 311 311 311 311 311 310 310
306 307 307 308 309 308 308 310 312 309 311 311 310 310 310 310 309 310 309 309 310 310 308 309 309 311 312 314 312 315 315 313 308 308 308 308 308 310 310 310 310 310 310 311 310 311 309
305 305 306 306 306 307 308 309 308 306 312 310 311 310 310 309 308 308 309 310 310 308 311 310 310 310 311 312 312 310 312 311 311 308 308 310 309 309 310 311 311 311 310 310 310 310 311
305 305 304 305 305 305 306 306 306 307 307 309 309 308 309 309 308 308 308 309 308 305 306 311 310 310 311 312 312 311 312 311 310 310 309 310 309 308 309 309 310 310 311 311 309 309 310
302 302 301 301 301 302 303 303 304 304 305 305 307 308 309 309 308 307 308 308 305 307 306 309 310 310 311 311 311 309 311 312 311 312 313 312 312 310 311 312 310 309 310 311 312 312 314
300 299 299 298 298 299 299 300 301 301 302 303 304 307 309 309 307 307 307 305 306 306 307 307 307 307 310 310 310 310 308 311 310 310 312 313 316 311 310 311 312 313 312 314 315 315 314
298 297 297 296 296 296 296 296 297 298 299 300 303 308 308 308 307 306 306 308 305 305 305 305 306 307 307 307 310 309 308 306 308 310 312 312 312 310 311 312 312 313 314 313 314 314 316
297 296 295 294 294 294 294 294 294 295 298 301 306 307 307 306 307 305 306 305 305 304 305 305 307 307 307 307 308 308 310 310 312 309 309 310 312 310 309 310 311 312 312 315 315 320 319
296 295 294 294 293 292 292 292 292 293 295 299 303 303 302 302 305 305 305 303 305 305 305 305 306 306 306 307 307 307 309 311 312 312 311 309 309 309 309 309 310 311 313 314 315 317 320
296 295 295 295 292 291 291 291 292 292 293 295 299 289 300 305 303 300 303 303 304 304 304 304 305 306 306 307 307 308 308 311 310 311 313 311 313 313 311 309 308 309 310 312 315 317 316
294 295 295 294 292 291 291 291 291 292 293 294 295 298 299 303 302 299 301 302 303 304 304 305 305 304 305 307 307 306 309 309 309 309 310 310 311 312 308 309 309 310 310 310 311 313 314
294 294 294 293 292 292 291 291 291 291 293 293 295 292 298 300 298 296 298 299 301 303 303 303 305 304 305 305 305 306 307 308 309 309 309 309 311 311 311 310 310 310 309 308 309 313 313
294 293 292 291 291 291 291 291 291 291 292 294 293 289 294 294 296 297 298 297 298 299 301 302 302 303 304 304 305 305 305 305 307 308 308 308 306 309 308 306 308 308 309 308 309 310 311
295 295 293 292 291 291 291 291 291 291 292 293 291 292 294 293 295 297 297 295 296 297 298 298 301 301 302 304 303 303 304 306 307 306 307 306 305 307 302 306 307 309 309 308 308 309 312
294 294 294 293 293 291 291 290 293 292 292 293 292 293 294 291 294 295 294 295 296 296 296 298 298 298 299 299 299 300 298 302 303 303 305 307 307 305 306 305 306 308 306 307 308 310 309
292 294 294 293 293 291 291 291 292 292 292 293 292 293 293 288 291 294 294 295 295 295 296 297 295 295 297 297 294 297 298 303 303 303 304 307 307 307 308 308 308 304 307 308 308 309 308
293 294 293 293 293 292 290 291 292 292 293 293 292 293 293 284 292 293 293 294 293 293 293 292 293 293 292 295 294 295 300 305 305 305 306 306 307 308 308 309 306 305 304 307 308 306 308
294 293 292 293 293 290 290 291 291 292 293 292 292 292 293 291 288 291 292 292 291 290 291 293 293 294 295 293 290 293 298 302 305 306 306 307 306 307 305 304 302 302 306 307 305 303 305
295 295 293 293 292 290 290 290 291 291 292 293 293 293 293 293 292 292 291 291 293 292 288 293 295 295 297 296 299 293 296 303 304 306 306 307 307 307 307 306 304 302 303 305 304 304 304
295 296 294 293 292 291 292 292 292 289 290 292 293 293 292 292 292 293 292 292 292 292 290 292 291 290 290 296 298 296 296 300 303 304 305 306 306 305 306 306 305 302 304 305 303 304 305
295 296 295 294 293 294 294 294 294 290 290 291 292 292 292 292 292 291 292 292 292 292 293 292 292 293 296 294 294 296 300 298 304 305 302 305 302 301 302 302 300 302 304 305 304 304 304
Wind_Speed
38 36 33 32 31 31 31 30 30 29 29 27 26 24 21 21 21 21 21 22 22 21 21 22 20 19 19 11 18 17 11 9 16 17 12 8 3 3 1 4 7 3 4 7 13 12 13
41 41 37 37 36 34 35 34 32 31 31 29 28 26 24 23 23 23 25 25 25 24 24 25 24 21 18 7 11 8 11 18 23 16 9 7 2 5 5 3 1 4 9 12 9 9 7
39 39 39 39 39 35 37 35 35 34 33 32 29 28 24 27 28 27 26 26 28 27 27 26 25 22 23 29 21 25 23 22 21 14 11 6 5 4 4 4 5 6 5 6 5 4 4
24 36 40 41 39 37 35 35 35 37 33 34 30 24 23 23 29 28 30 31 30 30 27 27 25 22 18 22 23 23 17 19 22 20 13 9 5 6 4 5 5 3 1 3 4 7 5
20 15 17 21 29 32 34 33 30 23 23 19 22 23 23 23 26 27 27 25 22 23 22 21 18 15 15 13 8 5 8 8 5 6 15 12 6 5 2 2 4 2 4 4 6 10 3
24 22 14 16 11 12 17 18 18 15 14 20 16 20 23 21 14 11 10 8 6 7 9 9 15 7 15 16 15 7 6 6 4 3 5 7 5 2 1 4 8 5 5 3 4 4 4
17 15 19 21 13 8 6 13 13 15 16 16 16 15 13 10 14 12 9 7 5 5 15 14 6 8 5 7 7 6 6 5 9 5 5 4 3 8 18 10 2 0 4 5 3 5 4
18 16 17 18 19 20 14 10 11 12 15 17 18 18 19 18 19 18 15 10 6 7 11 20 29 29 25 17 7 13 12 11 8 7 7 1 10 14 3 6 8 8 10 9 5 8 4
23 22 20 19 19 20 21 23 22 19 15 14 14 15 16 17 17 17 15 12 10 7 8 10 28 29 32 29 19 25 20 11 5 6 11 11 6 7 10 7 5 7 11 7 11 6 7
25 25 24 24 23 22 22 24 23 18 20 18 15 13 13 14 10 11 11 9 4 2 4 6 6 6 11 16 8 26 33 22 5 11 6 9 9 6 4 6 11 13 9 11 9 2 7
22 23 24 23 21 23 24 19 20 19 17 22 19 14 12 12 4 9 6 11 8 3 3 1 2 1 5 11 6 5 16 19 13 7 7 9 7 8 15 17 11 6 6 8 7 5 4
24 23 20 19 19 18 18 18 18 18 19 17 18 14 13 13 7 7 11 14 8 4 7 3 4 3 4 4 4 6 5 3 1 4 4 5 3 6 8 5 11 3 0 3 3 4 6
20 21 19 19 19 18 17 16 15 15 15 14 17 18 18 16 12 11 17 15 3 4 4 3 2 3 2 3 3 2 5 6 4 4 8 6 18 4 2 2 3 4 3 2 2 3 9
18 19 19 18 17 16 16 16 16 16 15 14 14 19 23 24 15 15 21 3 4 2 3 3 4 4 3 4 3 2 4 3 6 2 2 4 6 8 8 19 9 12 10 5 5 5 6
20 19 18 18 17 16 15 14 14 14 13 15 13 20 22 26 20 21 15 3 5 4 4 4 3 2 3 6 3 1 5 5 6 13 7 3 5 1 2 10 13 4 10 19 10 8 5
19 18 16 15 15 15 14 14 14 14 14 14 20 18 18 19 14 25 3 5 3 2 5 5 3 4 4 6 6 7 2 6 5 5 10 3 12 4 4 2 7 12 2 4 1 5 8
16 16 15 14 13 13 14 14 14 14 14 15 15 7 6 12 16 12 2 3 1 2 0 4 3 3 3 3 3 4 4 4 6 6 7 5 3 9 3 5 7 2 4 6 2 5 5
14 15 14 14 12 11 12 14 14 13 14 16 13 2 11 16 4 1 2 4 0 3 0 2 1 2 1 2 2 2 3 2 7 2 3 3 1 5 7 15 12 14 5 1 6 8 4
16 15 14 12 11 11 11 12 14 13 14 16 9 5 7 13 3 2 0 1 1 2 2 2 3 3 1 2 3 4 2 0 2 3 2 2 3 6 15 5 7 6 7 11 11 2 10
17 15 14 13 12 11 11 11 12 14 14 12 5 3 2 4 2 3 2 4 2 4 1 2 3 1 0 2 3 5 3 3 3 4 6 4 3 6 9 10 1 6 14 10 3 5 13
14 13 13 13 12 12 11 11 12 13 14 10 3 1 4 3 3 4 2 1 1 3 3 5 3 6 4 4 4 8 6 3 4 3 4 1 5 7 10 10 7 9 12 12 11 11 6
14 12 10 11 11 11 11 11 12 13 14 9 4 5 5 4 5 8 7 3 6 3 2 3 7 2 4 10 8 4 8 2 2 1 5 3 4 6 5 12 13 8 14 11 16 16 9
16 15 12 11 11 12 12 13 13 13 15 6 6 7 3 1 5 7 5 3 5 5 4 8 5 3 6 5 9 15 19 25 17 11 8 6 3 4 7 3 0 7 13 13 10 6 5
18 18 15 13 12 12 13 14 14 13 15 12 11 8 3 2 3 4 2 5 7 6 4 7 8 0 1 9 30 18 20 22 23 20 22 9 6 3 3 2 6 6 4 6 14 9 14
18 18 16 16 14 12 13 15 14 15 16 16 12 8 5 2 5 5 6 4 5 12 8 12 20 29 26 16 3 5 4 4 13 19 19 16 8 5 3 5 6 9 6 6 7 7 14
18 17 17 17 15 13 14 13 14 16 16 16 15 14 7 4 5 12 5 14 5 3 4 8 18 16 10 3 2 4 4 4 3 5 16 17 14 8 4 4 6 5 3 2 1 5 3
21 20 18 19 18 16 14 14 14 17 19 17 13 18 14 7 13 9 6 5 6 5 2 3 5 6 9 4 5 4 8 1 6 5 3 8 10 16 7 5 6 6 9 2 2 6 4
23 23 25 21 18 17 16 15 14 14 17 22 21 19 23 13 22 12 21 17 8 11 4 1 5 5 1 4 3 4 5 7 8 5 5 11 8 4 7 4 9 12 2 8 6 2 5
23 21 21 21 19 18 17 16 16 16 17 19 23 23 22 25 18 9 26 27 29 28 19 14 10 3 6 1 3 4 4 3 6 6 4 4 5 5 8 7 5 7 8 8 6 11 18
Wind_Direction
231 231 233 236 237 236 238 240 240 241 241 239 241 244 249 256 260 265 269 274 281 288 294 296 302 306 313 307 281 298 286 307 322 324 334 340 16 13 359 316 317 215 269 288 287 287 259
232 233 227 230 232 237 240 242 242 245 247 246 249 250 250 255 259 263 269 276 281 286 288 291 294 299 305 289 279 282 279 294 302 300 309 320 306 320 278 255 230 296 285 288 293 306 234
239 226 227 228 230 232 242 245 249 250 252 253 249 251 261 272 262 263 265 273 277 278 281 282 288 291 287 270 278 281 282 283 277 269 280 288 299 276 318 306 315 285 305 309 246 253 245
208 227 228 229 231 232 239 245 243 249 251 254 248 232 267 263 256 257 263 265 268 277 274 274 279 281 271 291 283 278 274 275 266 253 254 268 276 279 229 292 325 317 272 259 264 174 246
203 196 188 201 212 224 235 234 231 224 236 241 237 237 253 257 250 254 258 263 270 272 261 258 265 255 268 275 278 243 271 286 299 237 240 241 258 242 187 113 341 309 246 224 301 206 179
219 230 208 231 241 233 223 225 227 239 242 246 237 235 229 219 205 202 200 184 207 231 235 249 238 260 248 241 263 253 244 257 168 152 192 216 207 117 36 143 233 212 228 254 224 254 217
234 234 210 220 244 244 232 215 211 220 204 196 192 191 185 171 167 181 205 224 262 252 221 218 228 216 175 166 241 247 217 171 163 168 169 172 149 204 219 212 246 184 212 234 248 262 266
215 213 218 222 222 220 218 218 207 203 208 216 224 223 221 212 214 218 235 241 238 286 289 261 254 248 242 247 274 237 201 189 170 197 143 129 228 223 193 207 213 234 255 258 275 259 257
212 204 205 202 205 216 211 209 217 212 202 203 204 203 205 214 226 230 236 237 250 291 274 263 247 247 246 239 236 242 220 214 176 178 190 202 211 213 199 215 203 222 225 243 246 323 271
203 203 205 208 208 207 214 210 207 211 221 221 203 194 189 197 203 213 215 209 189 151 292 261 229 268 203 215 272 245 238 214 196 214 164 245 213 201 161 213 193 249 205 233 247 186 260
202 204 200 201 202 208 215 213 222 222 221 201 198 194 201 187 176 186 183 177 163 159 298 75 171 275 188 175 340 10 210 200 199 171 146 235 178 197 227 229 186 232 177 202 216 214 288
194 199 201 202 203 204 208 211 214 216 217 207 209 208 203 196 194 170 165 167 154 60 245 30 138 139 141 260 309 73 160 188 211 150 277 256 280 161 196 228 200 182 83 240 91 138 256
199 205 212 214 211 204 201 203 206 207 209 205 205 211 207 204 196 162 153 150 67 189 353 25 351 170 212 203 233 159 149 188 174 145 244 284 254 265 223 250 165 140 123 288 277 170 242
200 200 201 201 201 198 199 201 206 209 206 200 201 205 210 200 185 169 163 78 191 246 272 331 324 352 194 171 246 212 117 186 239 76 2 214 310 185 199 214 198 212 175 199 248 215 259
208 205 203 201 201 199 195 190 191 194 201 201 190 196 198 200 175 173 163 186 207 199 324 357 335 10 341 351 326 120 194 199 204 192 195 231 258 314 148 238 199 226 206 218 251 261 307
185 190 191 194 195 192 188 185 187 187 189 181 173 162 165 195 200 174 180 221 189 4 353 344 74 37 12 342 28 4 233 10 16 47 239 289 293 223 337 286 243 220 194 96 143 225 237
189 189 188 191 194 190 190 184 185 184 181 176 169 153 177 200 185 178 207 221 315 353 163 23 17 359 54 13 15 344 308 40 348 355 15 359 223 269 26 235 268 293 249 243 170 209 257
196 189 182 178 177 172 162 167 169 170 173 170 158 76 158 167 158 157 167 175 292 316 339 333 21 83 322 353 336 271 269 24 1 337 52 13 100 281 271 275 256 247 245 170 234 252 239
186 185 179 178 173 167 163 159 162 164 164 161 121 88 164 174 183 184 121 274 212 219 280 80 355 48 266 238 312 244 272 146 15 64 97 339 31 322 321 346 7 11 11 14 341 129 250
187 187 182 176 174 173 167 164 164 167 166 157 127 87 104 187 68 119 93 270 218 205 221 251 237 217 324 293 240 271 253 232 183 111 132 142 161 224 270 280 285 311 324 332 42 278 276
182 186 181 180 176 175 177 177 173 177 176 168 118 183 152 177 232 152 175 338 102 187 223 193 289 202 173 246 220 238 268 271 228 206 137 192 222 214 231 235 239 248 256 284 286 266 264
188 186 188 189 184 184 184 184 186 184 183 185 132 136 133 139 113 170 203 237 188 189 198 273 236 93 232 243 249 303 331 302 308 276 172 182 254 196 263 226 228 256 251 254 255 265 237
208 203 195 195 198 198 196 193 190 185 185 168 160 141 147 148 138 163 211 200 189 174 257 239 255 346 276 277 327 305 298 282 264 272 250 199 217 206 254 178 180 271 246 228 233 212 218
198 198 199 203 202 205 201 195 192 190 202 207 185 165 144 236 175 201 184 180 214 232 252 283 315 177 198 290 308 301 287 257 252 249 237 223 207 208 266 179 237 242 205 202 224 236 217
198 201 205 207 210 207 200 189 193 195 210 216 217 185 168 214 224 228 235 218 262 260 266 267 266 267 281 290 297 313 293 227 236 237 230 213 210 231 230 215 298 297 255 183 196 262 231
202 204 208 207 207 208 195 193 198 199 214 224 222 213 201 116 238 219 204 225 222 213 323 259 272 277 234 181 126 216 237 297 265 258 215 211 207 215 168 207 222 234 284 201 213 285 220
211 205 205 206 212 209 207 207 208 212 214 223 225 219 217 230 240 216 194 191 180 186 207 292 282 269 228 188 225 208 246 264 271 239 201 205 203 215 200 212 275 237 243 294 135 247 210
219 217 204 210 216 217 218 222 227 230 225 226 232 224 215 238 250 243 232 229 216 206 190 233 355 260 346 216 214 223 241 224 230 231 212 199 177 205 210 214 256 213 140 180 215 306 315
230 218 211 208 219 223 226 231 244 241 230 227 236 240 232 239 254 263 246 250 240 237 241 234 215 233 214 345 15 347 309 247 209 237 208 228 203 181 184 206 228 212 212 206 283 287 297